Location: Namasale
(1.5000°N, 32.6167°E)
Time: 16:56:39
(UTC+00:00)

Vanguard 1 Rocket - Pass Details

Date: 19 April 2021
Orbit: 651 x 4225 km, 34.3° (Epoch: 17 May)

Event Time Altitude Azimuth Distance (km) Brightness Sun altitude
Rises 18:45:08 0° 309° (NW) 3,948 11.4 -42.6°
Reaches altitude 10° 18:47:17 10° 311° (NW) 3,252 10.8 -43.1°
Enters shadow 18:52:59 57° 321° (NW) 1,964 9.0 -44.5°
Maximum altitude 18:55:42 82° 38° (NE) 1,951 - -45.1°
Drops below altitude 10° 19:13:04 10° 125° (SE) 6,234 - -49.2°
Sets 19:19:01 0° 125° (SE) 7,730 - -50.6°
